OneWeb SL0356

operational
NORAD ID: 49283 Int'l Des: 2021-090 Owner: ONEWEBN Country: UK Constellation: oneweb
LEOCIRCULARPOLARONEWEB_TYPE

Über OneWeb SL0356

Beschreibung wird geladen...

Live-Position

3D-Globus wird geladen...

Nächste Überflüge

Höhenverlauf

Altitude vs Time

uPlot chart will show altitude changes over time

Zweizeiliger Elementsatz

1 49283U 21090E 25305.50128198 -.00000057 00000-0 -17237-3 0 9994
2 49283 87.9188 319.8446 0000994 99.0205 261.1041 13.20771435199772
Epoch: 1. Nov. 2025 • Age: 12 hours

Aktueller Status

Höhe 1185.4 km
Geschwindigkeit 7.26 km/s
Subsatellitenpunkt -4.63°S, 100.33°E
Startdatum 14. Okt. 2021
Alter 4 years
Typ internet

Technische Details

Klassifizierung Payload
Masse 148.00 kg
Trockenmasse 140.00 kg
Gesamtmasse 148.00 kg
Länge 1.30 m
Durchmesser 1.00 m
Spannweite 5.00 m
Form Trapezoid+2 pan
Hersteller ONEWUS
Bus-Typ ARROW
Phasenstatus In Orbit
Besitzer/Staat ONEWEBN/UK

Große Konstellationen

Loading constellations...